User: anonymous   Login
Location: Bruch
(44.2051°N, 0.4120°E)
Time: 22:12:14
(UTC+00:00)
Language:

PSLV DEB - Orbit

View from above orbital plane
View from above orbital plane
View from above satellite
View from above satellite

Ground track
Ground track

The orbit data is extracted from the following two-line orbital elements,

1 28432U 01049NY  21174.84020911  .00000751  00000-0  12926-3 0  9999
2 28432  97.6241 194.8046 0076608 121.3327 239.5408 14.69323489427135
Epoch (UTC): 23 June 2021 20:09:54
Eccentricity: 0.0076608
inclination: 97.6241°
perigee height: 609 km
apogee height: 717 km
right ascension of ascending node: 194.8046°
argument of perigee: 121.3327°
revolutions per day: 14.69323489
mean anomaly at epoch: 239.5408°
orbit number at epoch: 42713

The dashed part of the orbit path shows where the satellite is in the earth's shadow,  

DLR